Change the Weather History Date:

Friday, March 28, 2014

  Actual Average Record
Temperature  
Mean Temperature 78 °F -  
Max Temperature 88 °F 82 °F 92 °F (2015)
Min Temperature 68 °F 70 °F 64 °F (2009)
Cooling Degree Days 13    
Growing Degree Days 28 (Base 50)    
Moisture  
Dew Point 73 °F    
Average Humidity 82    
Maximum Humidity 99    
Minimum Humidity 61    
Precipitation  
Precipitation 0.00 in - - ()
Sea Level Pressure  
Sea Level Pressure 30.07 in    
Wind  
Wind Speed 6 mph ()    
Max Wind Speed 18 mph    
Max Gust Speed -    
Visibility 7.4 miles    
Events      
Averages and records for this station are not official NWS values.
T = Trace of Precipitation, MM = Missing Value Source: Averaged Metar Reports

Daily Weather History Graph

Daily Weather History Graph

Search for Another Location

Airport or City:

Trip Planner

Search our weather history database for the weather conditions in past years. The results will help you decide how hot, cold, wet, or windy it might be!

Date:

Astronomy

Mar. 28, 2014 Rise Set
Actual Time 6:39 AM AST 6:55 PM AST
Civil Twilight 6:17 AM AST 7:17 PM AST
Nautical Twilight 5:51 AM AST 7:43 PM AST
Astronomical Twilight 5:25 AM AST 8:08 PM AST
Moon 4:50 AM AST (3/28) 5:02 PM AST (3/28)
Length of Visible Light 13h 00m
Length of Day
12h 15m
Waning Crescent, 6% of the Moon is Illuminated
Mar 28
Waning Crescent
Mar 30
New
Apr 7
First Quarter
Apr 15
Full
Apr 22
Last Quarter

Hourly Weather History & Observations

Time (AST) Temp. Heat Index Dew Point Humidity Pressure Visibility Wind Dir Wind Speed Gust Speed Precip Events Conditions
2:00 AM 73 °F - 72 °F 95% 30.12 in 10 mi Calm Calm - -   Mostly Cloudy
2:00 AM 73.4 °F - 71.6 °F 94% 30.09 in 6.2 mi Calm Calm - N/A   Mostly Cloudy
5:00 AM 74 °F - 72 °F 92% 29.88 in 10 mi Calm Calm - -   Mostly Cloudy
5:00 AM 73.4 °F - 71.6 °F 94% 30.06 in 6.2 mi Calm Calm - N/A   Mostly Cloudy
8:00 AM 73 °F - 72 °F 95% 30.11 in 10 mi Calm Calm - -   Clear
8:00 AM 73.4 °F - 71.6 °F 94% 30.09 in 6.2 mi Calm Calm - N/A   Mostly Cloudy
9:00 AM 77.0 °F - 73.4 °F 89% 30.12 in 6.2 mi ESE 9.2 mph - N/A   Scattered Clouds
10:00 AM 80.6 °F 85.4 °F 73.4 °F 79% 30.12 in 6.2 mi ESE 13.8 mph - N/A   Mostly Cloudy
11:00 AM - - 73 °F %  in 10 mi East 11.2 mph - -  
11:00 AM 82.4 °F 88.2 °F 73.4 °F 74% 30.12 in 6.2 mi East 10.4 mph - N/A   Mostly Cloudy
12:00 PM 84.2 °F 90.9 °F 73.4 °F 70% 30.12 in 6.2 mi ESE 18.4 mph - N/A   Scattered Clouds
1:00 PM 84.2 °F 90.9 °F 73.4 °F 70% 30.06 in 6.2 mi North 18.4 mph - N/A   Scattered Clouds
2:00 PM 86.0 °F 93.4 °F 73.4 °F 66% 30.06 in 6.2 mi East 17.3 mph - N/A   Partly Cloudy
3:00 PM 84.2 °F 92.3 °F 75.2 °F 74% 30.04 in 6.2 mi East 17.3 mph - N/A   Partly Cloudy
4:00 PM 84.2 °F 90.9 °F 73.4 °F 70% 30.01 in 6.2 mi East 17.3 mph - N/A   Scattered Clouds
5:00 PM 84 °F - 72 °F 61% 30.02 in 10 mi East 17.9 mph - -   Scattered Clouds
5:00 PM 82.4 °F 88.2 °F 73.4 °F 74% 30.01 in 6.2 mi East 17.3 mph - N/A   Partly Cloudy
6:00 PM 80.6 °F 85.4 °F 73.4 °F 79% 30.01 in 6.2 mi East 17.3 mph - N/A   Partly Cloudy
7:00 PM 80.6 °F 85.4 °F 73.4 °F 79% 30.04 in 6.2 mi East 13.8 mph - N/A   Partly Cloudy
8:00 PM 78 °F - 73 °F 80% 30.06 in 10 mi East 11.2 mph - -   Scattered Clouds
8:00 PM 78.8 °F - 73.4 °F 83% 30.06 in 6.2 mi East 11.5 mph - N/A   Partly Cloudy
11:00 PM 73 °F - 73 °F 99% 30.16 in 10 mi Calm Calm - -   Partly Cloudy
11:00 PM 77.0 °F - 73.4 °F 89% 30.09 in 6.2 mi Calm Calm - N/A   Partly Cloudy